• In Belarus
  • List of Countries
  • For 7 days
  • Water Temperature
  • Satellite Maps
  • Weather Map
  • Weather Widgets
  • user-avatar
    Login

    Hourly Weather Sliven

    Today, 23 November, Thursday

    Time Temperature Precipitation Wind Pressure Humidity
    00:00 +8°C° 0 mm 1 mps 733 mmHg 68%
    01:00 +7°C° 0 mm 1 mps 733 mmHg 70%
    02:00 +7°C° 0 mm 1 mps 733 mmHg 71%
    03:00 +7°C° 0 mm 1 mps 733 mmHg 72%
    04:00 +7°C° 0 mm 1 mps 733 mmHg 72%
    05:00 +7°C° 0 mm 1 mps 734 mmHg 73%
    06:00 +7°C° 0 mm 1 mps 734 mmHg 73%
    07:00 +6°C° 0 mm 0 mps 734 mmHg 73%
    08:00 +6°C° 0 mm 0 mps 735 mmHg 74%
    09:00 +8°C° 0 mm 1 mps 735 mmHg 68%
    10:00 +10°C° 0 mm 1 mps 735 mmHg 62%
    11:00 +12°C° 0 mm 1 mps 736 mmHg 57%
    12:00 +12°C° 0 mm 1 mps 736 mmHg 55%
    13:00 +13°C° 0 mm 1 mps 736 mmHg 54%
    14:00 +13°C° 0 mm 1 mps 736 mmHg 52%
    15:00 +12°C° 0 mm 1 mps 736 mmHg 57%
    16:00 +11°C° 0 mm 1 mps 735 mmHg 62%
    17:00 +10°C° 0 mm 1 mps 735 mmHg 67%
    18:00 +10°C° 0 mm 1 mps 735 mmHg 70%
    19:00 +9°C° 0 mm 1 mps 736 mmHg 72%
    20:00 +9°C° 0 mm 1 mps 736 mmHg 74%
    21:00 +8°C° 0 mm 1 mps 736 mmHg 76%
    22:00 +8°C° 0 mm 1 mps 736 mmHg 77%
    23:00 +8°C° 0 mm 1 mps 736 mmHg 78%

    Tomorrow, 24 November, Friday

    Time Temperature Precipitation Wind Pressure Humidity
    00:00 +8°C° 0 mm 1 mps 736 mmHg 78%
    01:00 +7°C° 0 mm 1 mps 736 mmHg 78%
    02:00 +6°C° 0 mm 0 mps 736 mmHg 79%
    03:00 +6°C° 0 mm 0 mps 736 mmHg 78%
    04:00 +6°C° 0 mm 0 mps 736 mmHg 78%
    05:00 +6°C° 0 mm 0 mps 735 mmHg 78%
    06:00 +6°C° 0 mm 0 mps 736 mmHg 78%
    07:00 +6°C° 0 mm 0 mps 736 mmHg 77%
    08:00 +6°C° 0 mm 0 mps 736 mmHg 77%
    09:00 +8°C° 0 mm 1 mps 736 mmHg 70%
    10:00 +10°C° 0 mm 1 mps 736 mmHg 64%
    11:00 +12°C° 0 mm 1 mps 736 mmHg 57%
    12:00 +13°C° 0 mm 1 mps 736 mmHg 55%
    13:00 +13°C° 0 mm 1 mps 736 mmHg 53%
    14:00 +14°C° 0 mm 1 mps 736 mmHg 51%
    15:00 +13°C° 0 mm 1 mps 736 mmHg 56%
    16:00 +12°C° 0 mm 1 mps 736 mmHg 62%
    17:00 +9°C° 0 mm 0 mps 736 mmHg 67%
    18:00 +10°C° 0 mm 1 mps 736 mmHg 70%
    19:00 +9°C° 0 mm 1 mps 736 mmHg 72%
    20:00 +9°C° 0 mm 1 mps 736 mmHg 75%
    21:00 +9°C° 0 mm 1 mps 737 mmHg 77%
    22:00 +8°C° 0 mm 1 mps 737 mmHg 79%
    23:00 +8°C° 0 mm 1 mps 737 mmHg 81%

    Day after tomorrow, 25 November, Saturday

    Time Temperature Precipitation Wind Pressure Humidity
    00:00 +8°C° 0 mm 1 mps 737 mmHg 82%
    01:00 +7°C° 0 mm 1 mps 737 mmHg 84%
    02:00 +7°C° 0 mm 1 mps 737 mmHg 85%
    03:00 +7°C° 0 mm 1 mps 737 mmHg 86%
    04:00 +7°C° 0 mm 1 mps 737 mmHg 87%
    05:00 +7°C° 0 mm 1 mps 737 mmHg 88%
    06:00 +7°C° 0 mm 1 mps 737 mmHg 89%
    07:00 +7°C° 0 mm 1 mps 737 mmHg 89%
    08:00 +7°C° 0 mm 1 mps 737 mmHg 90%
    09:00 +8°C° 0 mm 1 mps 737 mmHg 83%
    10:00 +9°C° 0 mm 2 mps 737 mmHg 77%
    11:00 +12°C° 0 mm 2 mps 737 mmHg 70%
    12:00 +12°C° 0 mm 2 mps 737 mmHg 67%
    13:00 +13°C° 0 mm 2 mps 737 mmHg 63%
    14:00 +13°C° 0 mm 2 mps 736 mmHg 60%
    15:00 +12°C° 0 mm 2 mps 736 mmHg 65%
    16:00 +10°C° 0 mm 2 mps 736 mmHg 70%
    17:00 +9°C° 0 mm 2 mps 736 mmHg 76%
    18:00 +9°C° 0 mm 2 mps 736 mmHg 79%
    19:00 +8°C° 0 mm 2 mps 735 mmHg 82%
    20:00 +7°C° 0 mm 2 mps 735 mmHg 86%
    21:00 +7°C° 0 mm 2 mps 735 mmHg 87%
    22:00 +7°C° 0 mm 2 mps 735 mmHg 88%
    23:00 +8°C° 0 mm 1 mps 735 mmHg 90%

    26 November, Sunday

    Time Temperature Precipitation Wind Pressure Humidity
    00:00 +7°C° 0 mm 1 mps 735 mmHg 90%
    01:00 +7°C° 0 mm 1 mps 735 mmHg 90%
    02:00 +7°C° 0 mm 1 mps 735 mmHg 90%
    03:00 +7°C° 0 mm 1 mps 734 mmHg 90%
    04:00 +7°C° 0 mm 1 mps 734 mmHg 90%
    05:00 +6°C° 0 mm 1 mps 734 mmHg 90%
    06:00 +6°C° 0 mm 1 mps 734 mmHg 90%
    07:00 +6°C° 0 mm 1 mps 734 mmHg 90%
    08:00 +6°C° 0 mm 1 mps 734 mmHg 90%
    09:00 +8°C° 0 mm 1 mps 734 mmHg 83%
    10:00 +9°C° 0 mm 1 mps 734 mmHg 76%
    11:00 +10°C° 0 mm 2 mps 734 mmHg 69%
    12:00 +12°C° 0 mm 2 mps 733 mmHg 66%
    13:00 +12°C° 0 mm 2 mps 733 mmHg 62%
    14:00 +13°C° 0 mm 2 mps 732 mmHg 59%
    15:00 +12°C° 0 mm 2 mps 732 mmHg 64%
    16:00 +11°C° 0 mm 1 mps 732 mmHg 69%
    17:00 +10°C° 0 mm 1 mps 732 mmHg 74%
    18:00 +10°C° 0 mm 1 mps 732 mmHg 76%
    19:00 +9°C° 0 mm 1 mps 732 mmHg 77%
    20:00 +9°C° 0 mm 1 mps 732 mmHg 79%
    21:00 +9°C° 0 mm 1 mps 731 mmHg 80%
    22:00 +9°C° 0 mm 1 mps 731 mmHg 82%
    23:00 +9°C° 0 mm 1 mps 731 mmHg 83%

    27 November, Monday

    Time Temperature Precipitation Wind Pressure Humidity
    00:00 +9°C° 0 mm 1 mps 731 mmHg 85%
    01:00 +9°C° 0 mm 1 mps 730 mmHg 86%
    02:00 +8°C° 0 mm 1 mps 730 mmHg 88%
    03:00 +8°C° 0.1 mm 1 mps 730 mmHg 89%
    04:00 +8°C° 0.1 mm 1 mps 729 mmHg 90%
    05:00 +7°C° 0.1 mm 0 mps 729 mmHg 91%
    06:00 +8°C° 0.1 mm 1 mps 729 mmHg 91%
    07:00 +8°C° 0.1 mm 1 mps 729 mmHg 92%
    08:00 +8°C° 0.1 mm 1 mps 730 mmHg 92%
    09:00 +9°C° 0.2 mm 1 mps 730 mmHg 88%
    10:00 +9°C° 0.2 mm 2 mps 730 mmHg 84%
    11:00 +9°C° 0.2 mm 2 mps 730 mmHg 79%
    12:00 +9°C° 0.1 mm 3 mps 730 mmHg 76%
    13:00 +8°C° 0.1 mm 4 mps 730 mmHg 73%
    14:00 +8°C° 0.1 mm 5 mps 729 mmHg 70%
    15:00 +7°C° 0.6 mm 5 mps 729 mmHg 71%
    16:00 +6°C° 0.6 mm 5 mps 730 mmHg 71%
    17:00 +5°C° 0.6 mm 5 mps 730 mmHg 72%
    18:00 +5°C° 0.8 mm 5 mps 730 mmHg 72%
    19:00 +5°C° 0.8 mm 5 mps 730 mmHg 72%
    20:00 +3°C° 0.8 mm 5 mps 731 mmHg 71%
    21:00 +3°C° 0.2 mm 5 mps 731 mmHg 71%
    22:00 +2°C° 0.2 mm 5 mps 731 mmHg 71%
    23:00 +2°C° 0.2 mm 5 mps 731 mmHg 71%

    28 November, Tuesday

    Time Temperature Precipitation Wind Pressure Humidity
    00:00 +2°C° 0 mm 5 mps 732 mmHg 72%
    01:00 +1°C° 0 mm 5 mps 732 mmHg 72%
    02:00 +1°C° 0 mm 5 mps 732 mmHg 73%
    03:00 +1°C° 0 mm 4 mps 732 mmHg 73%
    04:00 +1°C° 0 mm 4 mps 732 mmHg 73%
    05:00 0°C° 0 mm 4 mps 733 mmHg 74%
    06:00 +1°C° 0 mm 3 mps 733 mmHg 74%
    07:00 +1°C° 0 mm 3 mps 733 mmHg 74%
    08:00 +1°C° 0 mm 3 mps 734 mmHg 74%
    09:00 +1°C° 0 mm 3 mps 734 mmHg 69%
    10:00 +2°C° 0 mm 3 mps 734 mmHg 65%
    11:00 +3°C° 0 mm 3 mps 734 mmHg 61%
    12:00 +5°C° 0 mm 2 mps 734 mmHg 59%
    13:00 +5°C° 0 mm 2 mps 734 mmHg 57%
    14:00 +6°C° 0 mm 2 mps 734 mmHg 55%
    15:00 +6°C° 0 mm 1 mps 734 mmHg 58%
    16:00 +5°C° 0 mm 1 mps 734 mmHg 62%
    17:00 +4°C° 0 mm 1 mps 734 mmHg 65%
    18:00 +4°C° 0 mm 1 mps 734 mmHg 66%
    19:00 +4°C° 0 mm 1 mps 735 mmHg 68%
    20:00 +3°C° 0 mm 1 mps 735 mmHg 69%
    21:00 +3°C° 0 mm 1 mps 735 mmHg 70%
    22:00 +2°C° 0 mm 0 mps 735 mmHg 70%
    23:00 +2°C° 0 mm 0 mps 735 mmHg 71%
    Show more